Regional Weather Roundup
Issued by NWS

Home | Current Version | Previous Version | Text Only | Print | Product List | Glossary On
Versions: 1 2 3 4 5 6 7 8 9 10 11 12 13 14 15 16 17 18 19 20 21 22 23 24 25 26 27 28 29 30 31 32 33 34 35 36 37 38 39 40 41 42 43 44 45 46 47 48 49 50
000
ASUS44 KJAN 301503
RWRMS

MISSISSIPPI HOURLY WEATHER ROUNDUP
NATIONAL WEATHER SERVICE JACKSON MS
1000 AM CDT MON MAY 30 2016

NOTE: "FAIR: INDICATES FEW OR NO CLOUDS BELOW 12,000 FEET WITH NO
SIGNIFICANT WEATHER AND/OR OBSTRUCTIONS TO VISIBILITY.

MSZ001>002-007>008-010>013-018>021-025>028-034>036-301600-
NORTHWEST MISSISSIPPI

CITY           SKY/WX    TMP DP  RH WIND       PRES   REMARKS
BATESVILLE     FAIR      82  68  63 CALM      30.07F
CLARKSDALE     SUNNY     81  70  69 VRB6      30.06F
CLEVELAND      FAIR      80  72  77 N5        30.06F
GREENWOOD      SUNNY     81  66  60 NE5       30.06F
GREENVILLE       N/A     83  66  56 CALM      30.06F
OLIVE BRANCH   MOSUNNY   81  70  69 E6        30.07F
OXFORD         FAIR      81  66  61 NE5       30.09S
TUNICA         SUNNY     79  68  69 NE3       30.07F
WINONA         FAIR      82  69  66 CALM      30.07S
$$

MSZ003>006-009-014>017-022>024-029>033-037>039-301600-
NORTHEAST MISSISSIPPI

CITY           SKY/WX    TMP DP  RH WIND       PRES   REMARKS
COLUMBUS AFB   NOT AVBL
CORINTH        FAIR      82  64  54 E6        30.06S
STARKVILLE     FAIR      82  70  65 CALM      30.05F
TUPELO         SUNNY     83  65  54 CALM      30.06S
$$

MSZ040-058-301600-
CENTRAL MISSISSIPPI

CITY           SKY/WX    TMP DP  RH WIND       PRES   REMARKS
JACKSON INTL   MOSUNNY   84  69  60 VRB3      30.06F
JACKSON HAWKNS SUNNY     83  69  62 E5        30.06F
MADISON        FAIR      79  68  69 E5        30.06F
MERIDIAN KEY   MOSUNNY   88  68  51 NE5       30.05F HX  91
MERIDIAN NAS   MOSUNNY   87  67  51 N3        30.05F HX  90
VICKSBURG TVR  SUNNY     80  67  64 CALM      30.06F
VICKSBURG VKS  SUNNY     82  68  61 VRB3      30.06F
$$

MSZ059>079-301600-
SOUTH MISSISSIPPI

CITY           SKY/WX    TMP DP  RH WIND       PRES   REMARKS
BROOKHAVEN     FAIR     N/A N/A N/A CALM      30.08R
COLUMBIA       FAIR      84  72  65 CALM      30.08F
HATTIESBURG    SUNNY     86  67  52 N5        30.05F
MCCOMB         SUNNY     85  68  56 N7        30.05S
NATCHEZ        SUNNY     81  70  69 N5        30.06F
PINE BELT      SUNNY     84  70  61 CALM      30.07S
$$

MSZ080>082-301600-
COASTAL MISSISSIPPI

CITY           SKY/WX    TMP DP  RH WIND       PRES   REMARKS
BAY ST LOUIS   SUNNY     84  66  54 N5        30.03F
BILOXI         NOT AVBL
PASCAGOULA     SUNNY     86  71  60 VRB3      30.03S HX  91
GULFPORT       SUNNY     86  69  56 N5        30.02F HX  90
$$




USA.gov is the U.S. government's official web portal to all federal, state and local government web resources and services.